44P/Reinmuth 2 (2015)

Japanese version
Home page
Updated on January 17, 2017

---------------------------------------------------------------------

* Profile

* Pictures

* Orbital Elements

Epoch 2015 Apr. 8.0 TT = JDT 2457120.5
T 2015 Mar. 24.14584 TT                                 MPC
q   2.1186362            (2000.0)            P               Q
n   0.13881170     Peri.   58.28221     +0.96046138     +0.26040689
a   3.6941852      Node   286.46528     -0.27728947     +0.86296178
e   0.4264943      Incl.    5.89535     -0.02498998     +0.43299564
P   7.10
From 555 observations 1999 Feb. 14-2014 July 27, mean residual 0".7.
     Nongravitational parameters A1 = -0.06, A2 = -0.0597.

* Finding Charts

* Magnitudes Graph

        m1 = 10.0 + 5 log d + 15.0 log r  [ ,0]  (             - 2015 Mar. 24)
        m1 = 11.6 + 5 log d + 10.0 log r  [0, ]  (2015 Mar. 24 -             )

---------------------------------------------------------------------

The orbital elements are published on M.P.E.C. 2014-P41.
The charts are made with StellaNavigator Ver.8 (AstroArts).
The magnitudes graphs are made with Comet for Windows.

---------------------------------------------------------------------

Copyright(C) Seiichi Yoshida (comet@aerith.net). All rights reserved.